Tracking 25734 objects as of 28-May-2022
HD Live streaming from Space Station
objects crossing your sky now

NOAA 17 DEB

Track NOAA 17 DEB now!
10-day predictions


NORAD ID: 48705
Int'l Code: 2002-032AP
Perigee: 805.0 km
Apogee: 821.9 km
Inclination: 98.7 °
Period: 101.0 minutes
Semi major axis: 7184 km
RCS: Unknown
Launch date: June 24, 2002
Source: United States (US)
Launch site: AIR FORCE WESTERN TEST RANGE (AFWTR)

Note: This is SATELLITE DEBRIS
aabbcc
Your satellite tracking list
Your tracking list is empty




NASA's NSSDC Master Catalog

Two Line Element Set (TLE):
1 48705U 02032AN  22148.06924755  .00001121  00000-0  49137-3 0  9998
2 48705  98.6633  93.5822 0011786 337.9503  22.1169 14.25644638 62948
Source of the keplerian elements: AFSPC